This is the latest recevied weather packets stored in our database for station/object WB6ANP. If no packets are shown the sender has not sent any weather packets the latest 10 day(s).
| Time | Temp. | Humidity | Pressure | Rain* | Wind** | Luminosity | Snow |
|---|---|---|---|---|---|---|---|
| 1777917214 | 25.56° C | 58% | 1010.6 hPa | 0 mm | - | 944 W/m² | - |
| 1777916912 | 25° C | 59% | 1010.5 hPa | 0 mm | - | 870 W/m² | - |
| 1777916609 | 25° C | 59% | 1010.6 hPa | 0 mm | - | 964 W/m² | - |
| 1777916306 | 25° C | 58% | 1010.6 hPa | 0 mm | - | 792 W/m² | - |
| 1777916003 | 24.44° C | 58% | 1010.9 hPa | 0 mm | - | 851 W/m² | - |
| 1777915700 | 24.44° C | 58% | 1010.7 hPa | 0 mm | - | 590 W/m² | - |
| 1777915396 | 24.44° C | 61% | 1010.8 hPa | 0 mm | - | 472 W/m² | - |
| 1777915092 | 25° C | 58% | 1010.7 hPa | 0 mm | - | 892 W/m² | - |
| 1777914789 | 24.44° C | 58% | 1010.7 hPa | 0 mm | - | 914 W/m² | - |
| 1777914487 | 23.89° C | 60% | 1010.8 hPa | 0 mm | - | 931 W/m² | - |
| 1777914184 | 23.89° C | 60% | 1010.8 hPa | 0 mm | - | 819 W/m² | - |
| 1777913880 | 23.33° C | 60% | 1011 hPa | 0 mm | - | 818 W/m² | - |
| 1777913576 | 23.33° C | 60% | 1011 hPa | 0 mm | - | 862 W/m² | - |
| 1777913272 | 23.33° C | 60% | 1011.1 hPa | 0 mm | - | 882 W/m² | - |
| 1777912970 | 23.33° C | 62% | 1011 hPa | 0 mm | - | 842 W/m² | - |
| 1777912665 | 22.78° C | 63% | 1011.3 hPa | 0 mm | - | 799 W/m² | - |
| 1777912362 | 22.78° C | 62% | 1011.4 hPa | 0 mm | - | 578 W/m² | - |
| 1777912058 | 22.78° C | 63% | 1011.4 hPa | 0 mm | - | 660 W/m² | - |
| 1777911754 | 22.78° C | 62% | 1011.4 hPa | 0 mm | - | 603 W/m² | - |
| 1777911451 | 22.78° C | 62% | 1011.5 hPa | 0 mm | - | 699 W/m² | - |
| 1777911148 | 22.78° C | 62% | 1011.6 hPa | 0 mm | - | 786 W/m² | - |
| 1777910845 | 22.22° C | 63% | 1011.8 hPa | 0 mm | - | 759 W/m² | - |
| 1777910541 | 22.22° C | 62% | 1011.9 hPa | 0 mm | - | 759 W/m² | - |
| 1777910239 | 22.22° C | 62% | 1012 hPa | 0 mm | - | 712 W/m² | - |
| 1777909936 | 22.22° C | 63% | 1011.8 hPa | 0 mm | - | 729 W/m² | - |
* Rain latest hour (hover to see other rain measurements)
** Current wind speed in m/s (hover to see current wind gust speed)